Weather History for Russell, KS

Change the Weather History Date:

Tuesday, February 12, 2013

  Actual Average Record
Temperature  
Mean Temperature 37 °F -  
Max Temperature 48 °F 45 °F 77 °F (1962)
Min Temperature 26 °F 19 °F -6 °F (1955)
Degree Days  
Heating Degree Days 28    
Moisture  
Dew Point 19 °F    
Average Humidity 56    
Maximum Humidity 78    
Minimum Humidity 31    
Precipitation  
Precipitation 0.00 in - - ()
Sea Level Pressure  
Sea Level Pressure 30.08 in    
Wind  
Wind Speed 5 mph (WSW)    
Max Wind Speed 10 mph    
Max Gust Speed 17 mph    
Visibility 10 miles    
Events      
Averages and records for this station are not official NWS values.
T = Trace of Precipitation, MM = Missing Value Source: NWS Daily Summary

Daily Weather History Graph

Daily Weather History Graph

Search for Another Location

Airport:

Trip Planner

Search our weather history database for the weather conditions in past years. The results will help you decide how hot, cold, wet, or windy it might be!

Date:

Astronomy

Feb. 12, 2013 Rise Set
Actual Time 7:29 AM CST 6:09 PM CST
Civil Twilight 7:02 AM CST 6:37 PM CST
Nautical Twilight 6:30 AM CST 7:08 PM CST
Astronomical Twilight 6:00 AM CST 7:39 PM CST
Moon 8:29 AM CST (2/12) 9:09 PM CST (2/12)
Length of Visible Light 11h 34m
Length of Day
10h 40m
Waxing Crescent, 7% of the Moon is Illuminated
Feb 12
Waxing Crescent
Feb 17
First Quarter
Feb 25
Full
Mar 4
Last Quarter
Mar 11
New

Hourly Weather History & Observations

Time (CST) Temp. Windchill Dew Point Humidity Pressure Visibility Wind Dir Wind Speed Gust Speed Precip Events Conditions
12:53 AM 30.0 °F 25.2 °F 15.1 °F 54% 30.17 in 10.0 mi East 4.6 mph - N/A   Clear
1:53 AM 27.0 °F 20.5 °F 19.0 °F 72% 30.14 in 10.0 mi SSE 5.8 mph - N/A   Clear
2:53 AM 28.0 °F 22.8 °F 19.0 °F 69% 30.14 in 10.0 mi SSE 4.6 mph - N/A   Clear
3:53 AM 27.0 °F 20.5 °F 19.0 °F 72% 30.15 in 10.0 mi SSW 5.8 mph - N/A   Partly Cloudy
4:53 AM 27.0 °F 23.0 °F 19.9 °F 75% 30.14 in 10.0 mi South 3.5 mph - N/A   Clear
5:53 AM 27.0 °F - 19.0 °F 72% 30.13 in 10.0 mi Calm Calm - N/A   Clear
6:53 AM 27.0 °F 23.0 °F 19.0 °F 72% 30.13 in 10.0 mi SW 3.5 mph - N/A   Clear
7:53 AM 26.1 °F 21.9 °F 19.9 °F 78% 30.13 in 10.0 mi South 3.5 mph - N/A   Clear
8:53 AM 28.9 °F - 21.9 °F 75% 30.13 in 10.0 mi Calm Calm - N/A   Clear
9:53 AM 34.0 °F - 21.9 °F 61% 30.14 in 10.0 mi North - - N/A   Clear
10:53 AM 37.9 °F 33.5 °F 21.9 °F 53% 30.13 in 10.0 mi WSW 5.8 mph - N/A   Overcast
11:53 AM 43.0 °F 38.8 °F 24.1 °F 47% 30.10 in 10.0 mi West 6.9 mph - N/A   Clear
12:53 PM 44.1 °F 40.8 °F 24.1 °F 45% 30.06 in 10.0 mi WSW 5.8 mph - N/A   Clear
1:53 PM 46.0 °F 43.1 °F 23.0 °F 40% 30.04 in 10.0 mi West 5.8 mph - N/A   Clear
2:53 PM 48.0 °F - 21.0 °F 34% 30.01 in 10.0 mi WNW 10.4 mph 17.3 mph N/A   Clear
3:53 PM 48.0 °F - 19.0 °F 32% 30.00 in 10.0 mi West 3.5 mph - N/A   Clear
4:53 PM 48.9 °F - 19.0 °F 31% 29.99 in 10.0 mi West 6.9 mph - N/A   Clear
5:53 PM 44.1 °F 40.8 °F 17.1 °F 34% 29.99 in 10.0 mi NW 5.8 mph - N/A   Clear
6:53 PM 37.0 °F 29.8 °F 26.1 °F 65% 30.01 in 10.0 mi South 10.4 mph - N/A   Clear
7:53 PM 33.1 °F 27.7 °F 25.0 °F 72% 30.02 in 10.0 mi SW 5.8 mph - N/A   Clear
8:53 PM 34.0 °F 28.8 °F 12.9 °F 42% 30.01 in 10.0 mi WNW 5.8 mph - N/A   Clear
9:53 PM 28.9 °F 20.4 °F 12.0 °F 49% 30.02 in 10.0 mi NW 9.2 mph - N/A   Clear
10:53 PM 28.0 °F 21.7 °F 12.9 °F 53% 30.02 in 10.0 mi NW 5.8 mph - N/A   Clear
11:53 PM 28.0 °F 24.2 °F 14.0 °F 56% 30.01 in 10.0 mi West 3.5 mph - N/A   Clear